Regional Weather Roundup
Issued by NWS Lake Charles, LA

Home | Current Version | Previous Version | Text Only | Print | Product List | Glossary On
Versions: 1 2 3 4 5 6 7 8 9 10 11 12 13 14 15 16 17 18 19 20 21 22 23 24 25 26 27 28 29 30 31 32 33 34 35 36 37 38 39 40 41 42 43 44 45 46 47 48 49 50
000
ASUS44 KLCH 300310
RWRLCH
RWRLCH
REGIONAL WEATHER ROUNDUP
NATIONAL WEATHER SERVICE LAKE CHARLES LA
1000 PM CDT TUE JUL 29 2014

Note: "fair" indicates few or no clouds below 12,000 feet with no
significant weather and/or obstructions to visibility.


ACROSS SOUTHEAST TEXAS

CITY           SKY/WX    TMP DP  RH WIND       PRES   REMARKS
BEAUMONT       CLEAR     81  69  67 NE5       30.03R
BEAUMONT CITY    N/A     80  71  73 CALM      30.04R
ORANGE         CLEAR     78  71  78 CALM      30.05R
JASPER         CLEAR     73  70  89 CALM      30.07S FOG
$$

ACROSS CENTRAL LOUISIANA

CITY           SKY/WX    TMP DP  RH WIND       PRES   REMARKS
LEESVILLE      CLEAR     77  72  84 CALM      30.04F
FULLERTON        N/A     75  71  87 CALM      30.02S
ALEXANDRIA INT CLEAR     78  69  73 NE7       30.03R
ESLER FIELD    CLEAR     77  69  76 CALM      30.06R
DERIDDER         N/A     77  71  81 CALM      30.06S
OAKDALE        CLEAR     72  71  95 CALM      30.04S
OPELOUSAS        N/A     73  72  96 CALM      30.04S
$$

ACROSS SOUTHWEST AND SOUTH CENTRAL LOUISIANA

CITY           SKY/WX    TMP DP  RH WIND       PRES   REMARKS
SULPHUR        CLEAR     79  69  72 E3        30.04S
LAKE CHARLES   CLEAR     79  70  74 CALM      30.03S
CHENNAULT INT  CLEAR     79  69  71 CALM      30.05S
CAMERON PHI    PTCLDY    79  70  73 E6        30.04R
DEQUINCY         N/A     74  72  93 CALM      30.04S
JENNINGS         N/A     77  70  79 CALM      30.04S
LAFAYETTE      CLEAR     77  73  87 CALM      30.04R
NEW IBERIA     CLEAR     77  68  73 N3        30.04S
ABBEVILLE        N/A     74  69  85 N3        30.04S
PATTERSON      CLEAR     79  70  73 N6        30.07S
SALT POINT       N/A     80  71  74 CALM      30.03R
$$

SELECTED SITES ACROSS THE REGION

CITY           SKY/WX    TMP DP  RH WIND       PRES   REMARKS
HOUSTON BUSH   PTCLDY    77  74  90 E5        30.02S
HOUSTON HOBBY  PTCLDY    77  73  87 S3        30.02R
GALVESTON      MOCLDY    80  74  81 CALM      30.04R
COLLEGE STAT   CLEAR     82  70  66 E7        30.04R
CONROE         PTCLDY    78  75  90 CALM      30.05R
HUNTSVILLE     MOCLDY    81  70  69 CALM      30.05R
LUFKIN         PTCLDY    79  73  82 CALM      30.05R
SHREVEPORT     MOCLDY    81  65  58 E9        30.06R
MONROE         CLEAR     72  63  73 NE6       30.09R
NATCHEZ MS     CLEAR     75  64  69 NE6       30.07S
BATON ROUGE    CLEAR     75  69  81 CALM      30.04R
N.O. INTL ARPT PTCLDY    80  63  55 N6        30.02R
SLIDELL        CLEAR     74  70  87 CALM      30.02R
$$

MARINE REPORTS

STATION/POSITION TIME  TEMP    WIND        PRES    VSBY  WAVE
                       AIR SEA DIR/SP/G                  HT/PER
                 (UTC) (F)     (DEG/KT/KT) (MB)    (MI)  (FT/S)
BUOY 30 S HIGH I NOT AVBL
SEA RIM ST PARK  0300   81      70/  5/  5 1017.5R
PORT ARTHUR      0300      88   50/  2/  5 1017.0R
SABINE PASS N    0300   82 87   80/  5/  6 1017.0R
TEXAS POINT      0300   83 87   50/ 11/ 13 1017.1R
CALCASIEU PASS   0300   79 88  100/  4/  5 1018.1R
LK CHARLES BEACH 0300   82 87              1017.8R
MARSH ISLAND     0200   84      30/ 10/ 12   N/A
FRESH WATER LOCK 0300   79 88   10/  7/  8 1016.8R
AMERADA PASS     0300   80 86  350/  3/  5 1016.8R
$$



USA.gov is the U.S. government's official web portal to all federal, state and local government web resources and services.